Flag for U.S.A. Weather past 2 weeks in Nashville, Tennessee, U.S.A.

Now
73 °F

Partly sunny.


Feels Like: 71 °F
Forecast: 73 / 87 °F
Wind: 6 mph from South

Location: Nashville International Airport

Current Time: Sep 2, 2014 at 7:12:10 AM

Latest Report: Sep 2, 2014 at 6:53 AM


Visibility: 10 mi

Pressure: 30.04 "Hg

Humidity: 90%

Dew point: 70 °F

Location of NashvilleLocation

Historic Weather in Nashville — Graph

°F

Nashville temperature yesterday

Maximum temperature yesterday: 91 °F (at 1:53 PM)
Minimum temperature yesterday: 74 °F (at 12:53 AM)
Average temperature yesterday: 81 °F

Past Weeks' High & Low Weather Summary

 TemperatureHumidityPressure
High95 °F (Aug 23, 3:53 PM)97% (Aug 20, 9:53 PM)30.15 "Hg (Aug 20, 9:53 PM)
Low70 °F (Aug 21, 4:53 AM)28% (Aug 29, 1:53 PM)29.82 "Hg (Aug 18, 4:53 PM)
Average80 °F75%30.00 "Hg
* Reported Aug 18 5:53 AM — Sep 2 5:53 AM, Nashville, Weather by CustomWeather, © 2014

Note: Actual official high and low records may vary slightly from our data, if they occured in-between our weather recording intervals... More about our weather records

Advertising

Nashville weather history for previous 24 hours

 ConditionsComfort  
Time TempWeatherWind HumidityBarometerVisibility
5:53 AM
Sep 2
74 °FPassing clouds.5 mph85%30.04 "Hg10 mi
4:53 AM74 °FPassing clouds.No wind85%30.02 "Hg10 mi
3:53 AM71 °FPassing clouds.3 mph90%30.00 "Hg10 mi
2:53 AM72 °FClear.3 mph87%30.01 "Hg10 mi
1:53 AM73 °FClear.3 mph88%30.01 "Hg10 mi
12:53 AM74 °FClear.No wind85%30.01 "Hg10 mi
11:53 PM
Sep 1
76 °FClear.3 mph77%30.01 "Hg10 mi
10:53 PM75 °FPassing clouds.5 mph82%30.01 "Hg10 mi
9:53 PM78 °FPassing clouds.5 mph74%30.01 "Hg10 mi
8:53 PM80 °FPassing clouds.3 mph67%30.01 "Hg10 mi
7:53 PM84 °FPassing clouds.6 mph57%29.98 "Hg10 mi
6:53 PM86 °FScattered clouds.8 mph53%29.97 "Hg10 mi
5:53 PM89 °FPartly sunny.10 mph46%29.96 "Hg10 mi
4:53 PM90 °FBroken clouds.9 mph48%29.97 "Hg10 mi
3:53 PM89 °FBroken clouds.8 mph50%29.98 "Hg10 mi
2:53 PM91 °FBroken clouds.14 mph45%30.00 "Hg10 mi
1:53 PM91 °FBroken clouds.16 mph47%30.02 "Hg10 mi
12:53 PM89 °FBroken clouds.9 mph53%30.04 "Hg10 mi
11:53 AM88 °FScattered clouds.8 mph57%30.05 "Hg10 mi
10:53 AM87 °FScattered clouds.10 mph61%30.06 "Hg10 mi
9:53 AM84 °FScattered clouds.12 mph67%30.06 "Hg10 mi
8:53 AM80 °FBroken clouds.8 mph76%30.07 "Hg10 mi
7:53 AM77 °FScattered clouds.9 mph85%30.06 "Hg10 mi
Weather by CustomWeather, © 2014

See weather overviewHow to use our weather pages